Regional Weather Roundup
Issued by NWS

Home | Current Version | Previous Version | Graphics & Text | Print | Product List | Glossary Off
Versions: 1 2 3 4 5 6 7 8 9 10 11 12 13 14 15 16 17 18 19 20 21 22 23 24 25 26 27 28 29 30 31 32 33 34 35

000
ASUS43 KDMX 211207
RWRIA

WEATHER ROUNDUP FOR IOWA
NATIONAL WEATHER SERVICE DES MOINES IA
700 AM CDT TUE OCT 21 2014

NOTE: "FAIR" INDICATES FEW OR NO CLOUDS BELOW 12,000 FEET WITH NO
SIGNIFICANT WEATHER AND/OR OBSTRUCTIONS TO VISIBILITY.

* - THESE STATIONS ARE NOT NWS STATIONS...THUS NOT UNDER NWS
QUALITY CONTROL.  THEY ALSO DO NOT REPORT WEATHER SUCH
AS PRECIPITATION OR FOG.

IAZ001>003-012>014-020>022-031>034-043>046-211300-
   NORTHWEST IOWA

CITY           SKY/WX    TMP DP  RH WIND       PRES   REMARKS
CARROLL *      CLEAR     34  34 100 NW3       30.12S
CHEROKEE *     CLEAR     34  34 100 CALM      30.12S
DENISON *      CLEAR     37  37 100 CALM      30.10F
LE MARS *      CLEAR     36  34  93 CALM      30.11F
ORANGE CITY *  CLEAR     46  37  71 E3        30.11S
SHELDON *      CLEAR     39  36  87 E6        30.10S WCI  35
SIOUX CITY     CLEAR     37  35  92 SE3       30.11R
6HR MIN TEMP:  35; 6HR MAX TEMP:  41;

SPENCER        CLEAR     32  29  88 CALM      30.12S
6HR MIN TEMP:  30; 6HR MAX TEMP:  37;

STORM LAKE *   CLEAR     39  36  87 SE3       30.13S
$$

IAZ055>058-069>071-079>083-090>094-211300-
   SOUTHWEST IOWA

CITY           SKY/WX    TMP DP  RH WIND       PRES   REMARKS
ATLANTIC *     CLEAR     34  32  93 N5        30.12S WCI  30
AUDUBON *      CLEAR     34  28  80 CALM      30.13S
CLARINDA *     FOG       34  34 100 CALM      30.14R VSB 3/4
COUNCIL BLFS * CLEAR     43  43 100 E5        30.10S
CRESTON *      CLEAR     45  39  81 NE6       30.12S
HARLAN  *      CLEAR     36  36 100 N5        30.15S WCI  32
LAMONI         CLEAR     44  39  82 CALM      30.11S
6HR MIN TEMP:  44; 6HR MAX TEMP:  49;

RED OAK *      CLEAR     36  36 100 CALM      30.12S
SHENANDOAH *     N/A     36  36 100 NE5       30.13R WCI  32
$$

IAZ047>049-059>061-072>074-084-211300-
   CENTRAL IOWA

CITY           SKY/WX    TMP DP  RH WIND       PRES   REMARKS
AMES           CLEAR     37  35  92 CALM      30.13R
6HR MIN TEMP:  36; 6HR MAX TEMP:  42;

ANKENY *       CLEAR     37  37 100 N3        30.12S
CHARITON *     CLEAR     41  39  93 N3        30.11S
DES MOINES     CLEAR     43  39  86 CALM      30.12S
6HR MIN TEMP:  43; 6HR MAX TEMP:  50;

GRINNELL*      CLEAR     40  37  92 E6        30.13R
KNOXVILLE *    CLEAR     41  39  93 NE3       30.11R
MARSHALLTOWN   CLEAR     38  36  92 CALM      30.13R
6HR MIN TEMP:  37; 6HR MAX TEMP:  42;

PELLA *        CLEAR     42  40  91 CALM      30.13S
PERRY *          N/A     36  36 100 CALM      30.12R
$$

IAZ004>006-015-016-023>025-035-036-211300-
   NORTH CENTRAL IOWA

CITY           SKY/WX    TMP DP  RH WIND       PRES   REMARKS
ALGONA *       CLEAR     37  36  93 CALM      30.14R
CLARION *      CLEAR     39  39 100 E7        30.13R WCI  34
ESTHERVILLE    CLEAR     31  30  96 CALM      30.13R FOG
6HR MIN TEMP:  31; 6HR MAX TEMP:  38;

FORT DODGE *   CLEAR     36  30  80 CALM      30.13S
MASON CITY     CLEAR     31  31 100 CALM      30.16R FOG
6HR MIN TEMP:  32; 6HR MAX TEMP:  40;

FOREST CITY *  CLEAR     34  34 100 CALM      30.14R
IOWA FALLS *     N/A     37  36  93 E3        30.15R
$$

IAZ007>011-017>019-026>030-037>042-050>054-066-211300-
   NORTHEAST IOWA

CITY           SKY/WX    TMP DP  RH WIND       PRES   REMARKS
CEDAR RAPIDS   CLEAR     37  37 100 N5        30.13R WCI  33
6HR MIN TEMP:  36; 6HR MAX TEMP:  47;

CHARLES CITY * CLEAR     37  36  93 NE6       30.15S WCI  33
CLINTON *      CLEAR     37  34  87 N6        30.16R WCI  33
DECORAH *      CLEAR     37  36  93 CALM      30.15S
DUBUQUE        CLEAR     39  37  92 NE5       30.14R
6HR MIN TEMP:  36; 6HR MAX TEMP:  44;

MONTICELLO *   CLEAR     36  36 100 CALM      30.15R
OELWEIN *      CLEAR     36  36 100 NE6       30.15S WCI  31
WATERLOO       CLEAR     34  33  96 CALM      30.14R
6HR MIN TEMP:  34; 6HR MAX TEMP:  39;

$$

IAZ064-065-067-068-078-211300-
   EAST CENTRAL IOWA

CITY           SKY/WX    TMP DP  RH WIND       PRES   REMARKS
DAVENPORT      CLEAR     39  36  89 N3        30.14R
6HR MIN TEMP:  36; 6HR MAX TEMP:  45;

IOWA CITY      CLEAR     38  37  97 CALM      30.15R
6HR MIN TEMP:  38; 6HR MAX TEMP:  49;

MT. PLEASANT * CLEAR     38  38 100 N6        30.13R WCI  34
MUSCATINE *    CLEAR     39  37  93 CALM      30.14R
QUAD CITIES    CLEAR     37  35  92 CALM      30.14R
6HR MIN TEMP:  36; 6HR MAX TEMP:  43;

$$

IAZ062-063-075>077-085>089-095>099-211300-
   SOUTHEAST IOWA

CITY           SKY/WX    TMP DP  RH WIND       PRES   REMARKS
BURLINGTON     CLEAR     41  40  96 N6        30.12R
6HR MIN TEMP:  38; 6HR MAX TEMP:  50;

FAIRFIELD *      N/A     37  36  93 NE7       30.13R WCI  32
FORT MADISON * CLEAR     43  41  93 CALM      30.13R
KEOKUK *       CLEAR     43  41  93 CALM      30.11R
OSKALOOSA *      N/A     38  37  94 NE7       30.12S WCI  33
CENTERVILLE *  CLEAR     37  37 100 NW3       30.13R
OTTUMWA        CLEAR     41  38  89 NE6       30.12R
6HR MIN TEMP:  39; 6HR MAX TEMP:  47;

WASHINGTON *   CLEAR     41  41 100 NE6       30.13S
$$

ABBREVIATIONS USED IN REMARKS
   TC - TEMPERATURES IN CELSIUS
  WCI - WIND CHILL INDEX
   HX - HEAT INDEX
  VSB - VISIBILITY
$$




USA.gov is the U.S. government's official web portal to all federal, state and local government web resources and services.